Location: Newark
(12.4436°N, 0.6167°W)
Time: 17:39:54
(UTC+00:00)

Vanguard 2 - Pass Details

Date: 12 December 2019
Orbit: 553 x 2938 km, 32.9° (Epoch: 19 January)

Event Time Altitude Azimuth Distance (km) Brightness Sun altitude
Rises 23:49:37 0° 252° (WSW) 4,799 - -79.3°
Reaches altitude 10° 23:52:23 10° 256° (WSW) 4,087 - -79.4°
Maximum altitude 00:04:04 61° 334° (NNW) 2,657 - -79.2°
Drops below altitude 10° 00:21:12 10° 52° (NE) 5,742 - -77.8°
Exits shadow 00:23:52 - 55° (NE) 6,328 12.1 -77.5°
Sets 00:25:59 0° 56° (NE) 6,788 12.4 -77.2°
